| time (UTC) | temp C | wind direction | speed KPH | gust KPH | rain 1hr cm | rain 24hr cm | rain mn cm | humidity % | barometer mb |
| 20260504004549 | 7 | 0.0 | 0.0 | 0.00 | 0.00 | 0.00 | 49 | 1008.1 | |
| 20260504003532 | 7 | 0.0 | 0.0 | 0.00 | 0.00 | 0.00 | 49 | 1008.0 | |
| 20260504002517 | 8 | 0.0 | 0.0 | 0.00 | 0.00 | 0.00 | 45 | 1007.9 | |
| 20260504001521 | 8 | 0.0 | 0.0 | 0.00 | 0.00 | 0.00 | 42 | 1007.7 | |
| 20260504000524 | 8 | 0.0 | 0.0 | 0.00 | 0.00 | 0.00 | 42 | 1007.6 | |
| 20260503235527 | 9 | 281 | 0.0 | 4.8 | 0.00 | 0.00 | 0.00 | 40 | 1007.5 |
| 20260503234551 | 9 | 225 | 0.0 | 4.8 | 0.00 | 0.00 | 0.00 | 39 | 1007.4 |
| 20260503233516 | 10 | 320 | 1.6 | 4.8 | 0.00 | 0.00 | 0.00 | 38 | 1007.2 |
| 20260503232519 | 10 | 9 | 3.2 | 8.0 | 0.00 | 0.00 | 0.00 | 38 | 1007.1 |
| 20260503231523 | 10 | 218 | 1.6 | 8.0 | 0.00 | 0.00 | 0.00 | 37 | 1006.9 |
| 20260503230546 | 10 | 267 | 8.0 | 17.7 | 0.00 | 0.00 | 0.00 | 36 | 1006.8 |
| 20260503225523 | 11 | 205 | 3.2 | 16.1 | 0.00 | 0.00 | 0.00 | 36 | 1006.7 |
| 20260503224520 | 11 | 117 | 3.2 | 9.7 | 0.00 | 0.00 | 0.00 | 35 | 1006.6 |
| 20260503223517 | 11 | 36 | 3.2 | 9.7 | 0.00 | 0.00 | 0.00 | 36 | 1006.5 |
| 20260503222515 | 11 | 0.0 | 0.0 | 0.00 | 0.00 | 0.00 | 36 | 1006.4 | |
| 20260503221524 | 11 | 76 | 1.6 | 6.4 | 0.00 | 0.00 | 0.00 | 36 | 1006.3 |
| 20260503220528 | 11 | 57 | 4.8 | 8.0 | 0.00 | 0.00 | 0.00 | 35 | 1006.3 |
| 20260503215531 | 11 | 286 | 6.4 | 12.9 | 0.00 | 0.00 | 0.00 | 35 | 1006.2 |
| 20260503213519 | 11 | 226 | 4.8 | 11.3 | 0.00 | 0.00 | 0.00 | 34 | 1006.1 |
| 20260503212542 | 11 | 260 | 6.4 | 14.5 | 0.00 | 0.00 | 0.00 | 34 | 1005.7 |
| 20260503211526 | 11 | 164 | 3.2 | 9.7 | 0.00 | 0.00 | 0.00 | 34 | 1005.6 |
| 20260503210529 | 12 | 31 | 6.4 | 11.3 | 0.00 | 0.00 | 0.00 | 34 | 1005.5 |
| 20260503205532 | 11 | 325 | 6.4 | 11.3 | 0.00 | 0.00 | 0.00 | 34 | 1005.3 |
| 20260503204517 | 11 | 21 | 4.8 | 14.5 | 0.00 | 0.00 | 0.00 | 35 | 1005.4 |
| 20260503203521 | 11 | 333 | 1.6 | 8.0 | 0.00 | 0.00 | 0.00 | 35 | 1005.3 |
| 20260503202524 | 11 | 217 | 6.4 | 9.7 | 0.00 | 0.00 | 0.00 | 36 | 1005.1 |
| 20260503201528 | 11 | 269 | 4.8 | 11.3 | 0.00 | 0.00 | 0.00 | 36 | 1005.0 |
| 20260503200531 | 11 | 14 | 3.2 | 8.0 | 0.00 | 0.00 | 0.00 | 37 | 1005.0 |
| 20260503195516 | 11 | 15 | 4.8 | 9.7 | 0.00 | 0.00 | 0.00 | 38 | 1005.1 |
| 20260503194519 | 11 | 269 | 6.4 | 9.7 | 0.00 | 0.00 | 0.00 | 38 | 1005.2 |
| 20260503193523 | 11 | 250 | 4.8 | 12.9 | 0.00 | 0.00 | 0.00 | 39 | 1005.2 |
| 20260503192526 | 11 | 301 | 8.0 | 14.5 | 0.00 | 0.00 | 0.00 | 39 | 1005.1 |
| 20260503191523 | 12 | 4 | 6.4 | 12.9 | 0.00 | 0.00 | 0.00 | 39 | 1005.1 |
| 20260503190520 | 12 | 25 | 4.8 | 12.9 | 0.00 | 0.00 | 0.00 | 39 | 1005.1 |
| 20260503185518 | 12 | 82 | 4.8 | 6.4 | 0.00 | 0.00 | 0.00 | 38 | 1005.4 |
| 20260503184515 | 12 | 338 | 1.6 | 9.7 | 0.00 | 0.00 | 0.00 | 39 | 1005.4 |
| 20260503183544 | 11 | 15 | 4.8 | 14.5 | 0.00 | 0.00 | 0.00 | 39 | 1005.6 |
| 20260503182527 | 11 | 23 | 3.2 | 6.4 | 0.00 | 0.00 | 0.00 | 41 | 1005.6 |
| 20260503181531 | 10 | 356 | 4.8 | 8.0 | 0.00 | 0.00 | 0.00 | 42 | 1005.7 |
| 20260503180616 | 10 | 60 | 8.0 | 14.5 | 0.00 | 0.00 | 0.00 | 46 | 1005.6 |
| 20260503175540 | 10 | 310 | 8.0 | 11.3 | 0.00 | 0.00 | 0.00 | 46 | 1005.4 |
| 20260503174523 | 11 | 249 | 6.4 | 19.3 | 0.00 | 0.00 | 0.00 | 46 | 1005.3 |
| 20260503173526 | 10 | 292 | 6.4 | 11.3 | 0.00 | 0.00 | 0.00 | 46 | 1005.2 |
| 20260503172610 | 10 | 269 | 6.4 | 16.1 | 0.00 | 0.00 | 0.00 | 48 | 1005.2 |
| 20260503171515 | 10 | 355 | 6.4 | 9.7 | 0.00 | 0.00 | 0.00 | 47 | 1005.2 |
| 20260503170518 | 10 | 340 | 3.2 | 8.0 | 0.00 | 0.00 | 0.00 | 49 | 1005.2 |
| 20260503150515 | 7 | 279 | 3.2 | 9.7 | 0.00 | 0.00 | 0.00 | 71 | 1005.6 |
| 20260503130524 | 7 | 358 | 3.2 | 6.4 | 0.00 | 0.00 | 0.00 | 70 | 1006.0 |
| 20260503110528 | 5 | 0.0 | 0.0 | 0.00 | 0.00 | 0.00 | 81 | 1006.4 | |
| 20260503081523 | 5 | 0.0 | 0.0 | 0.00 | 0.00 | 0.00 | 81 | 1007.5 | |
| 20260503080515 | 5 | 0.0 | 0.0 | 0.00 | 0.00 | 0.00 | 81 | 1007.5 | |
| 20260503072528 | 5 | 0.0 | 0.0 | 0.00 | 0.00 | 0.00 | 81 | 1007.8 | |
| 20260503071551 | 5 | 0.0 | 0.0 | 0.00 | 0.00 | 0.00 | 81 | 1007.9 | |
| 20260503070516 | 5 | 0.0 | 0.0 | 0.00 | 0.00 | 0.00 | 81 | 1008.1 | |
| 20260503054525 | 6 | 0.0 | 0.0 | 0.00 | 0.00 | 0.00 | 81 | 1009.0 | |
| 20260503053529 | 6 | 0.0 | 0.0 | 0.00 | 0.00 | 0.00 | 81 | 1009.1 | |
| 20260503052531 | 6 | 0.0 | 0.0 | 0.00 | 0.00 | 0.00 | 81 | 1009.3 | |
| 20260503051517 | 7 | 0.0 | 0.0 | 0.00 | 0.00 | 0.00 | 81 | 1009.3 | |
| 20260503050520 | 7 | 0.0 | 0.0 | 0.00 | 0.00 | 0.00 | 81 | 1009.3 | |
| 20260503045523 | 7 | 0.0 | 0.0 | 0.00 | 0.00 | 0.00 | 81 | 1009.6 | |
| 20260503044527 | 7 | 0.0 | 0.0 | 0.00 | 0.00 | 0.00 | 81 | 1009.7 | |
| 20260503043524 | 7 | 0.0 | 3.2 | 0.00 | 0.00 | 0.00 | 81 | 1009.9 | |
| 20260503042515 | 8 | 0.0 | 0.0 | 0.00 | 0.00 | 0.00 | 81 | 1010.0 | |
| 20260503041518 | 8 | 0.0 | 0.0 | 0.00 | 0.00 | 0.00 | 81 | 1010.0 | |
| 20260503040516 | 8 | 0.0 | 0.0 | 0.00 | 0.00 | 0.00 | 81 | 1010.1 | |
| 20260503035525 | 8 | 0.0 | 0.0 | 0.00 | 0.00 | 0.00 | 81 | 1010.0 | |
| 20260503034528 | 8 | 0.0 | 0.0 | 0.00 | 0.00 | 0.00 | 81 | 1010.1 | |
| 20260503033531 | 8 | 0.0 | 0.0 | 0.00 | 0.00 | 0.00 | 81 | 1010.1 | |
| 20260503032517 | 8 | 0.0 | 0.0 | 0.00 | 0.00 | 0.00 | 81 | 1010.0 | |
| 20260503031520 | 8 | 0.0 | 0.0 | 0.00 | 0.00 | 0.00 | 81 | 1010.0 | |
| 20260503030523 | 8 | 0.0 | 0.0 | 0.00 | 0.00 | 0.00 | 81 | 1010.1 | |
| 20260503025527 | 8 | 0.0 | 0.0 | 0.00 | 0.00 | 0.00 | 81 | 1010.1 | |
| 20260503024530 | 8 | 0.0 | 0.0 | 0.00 | 0.00 | 0.00 | 81 | 1010.2 | |
| 20260503023515 | 8 | 0.0 | 0.0 | 0.00 | 0.00 | 0.00 | 81 | 1010.3 | |
| 20260503022518 | 8 | 0.0 | 0.0 | 0.00 | 0.00 | 0.00 | 81 | 1010.2 | |
| 20260503021521 | 8 | 0.0 | 0.0 | 0.00 | 0.00 | 0.00 | 81 | 1010.3 | |
| 20260503020525 | 8 | 0.0 | 0.0 | 0.00 | 0.00 | 0.00 | 81 | 1010.4 | |
| 20260503015528 | 8 | 0.0 | 0.0 | 0.00 | 0.00 | 0.00 | 81 | 1010.2 | |
| 20260503014532 | 8 | 0.0 | 0.0 | 0.00 | 0.00 | 0.00 | 81 | 1010.1 | |
| 20260503013517 | 8 | 0.0 | 0.0 | 0.00 | 0.00 | 0.00 | 80 | 1010.2 | |
| 20260503012520 | 8 | 0.0 | 0.0 | 0.00 | 0.00 | 0.00 | 79 | 1010.3 | |
| 20260503011524 | 8 | 0.0 | 0.0 | 0.00 | 0.00 | 0.00 | 78 | 1010.5 | |
| 20260503010527 | 8 | 0.0 | 0.0 | 0.00 | 0.00 | 0.00 | 78 | 1010.6 | |
| 20260503005524 | 8 | 0.0 | 0.0 | 0.00 | 0.00 | 0.00 | 78 | 1010.5 |